{"data":{"norad_id":60594,"epoch":"2026-09-21T20:32:39.111072Z","epoch_age_seconds":71735,"freshness":"FRESH","line1":"1 60594U 24150M   26264.85600823 -.00000128  00000+0  73328-5 0  9997","line2":"2 60594  53.1589 111.7131 0001194  86.7123 273.4016 15.34389836118131","mean_motion":15.34389836,"eccentricity":0.0001194,"inclination_deg":53.1589,"raan_deg":111.7131,"arg_perigee_deg":86.7123,"mean_anomaly_deg":273.4016,"bstar":7.3328e-6,"rev_number":11813,"period_min":93.848379741222,"perigee_km":461.91664999211,"apogee_km":463.55024985555,"semimajor_km":6840.8704499238,"source":"CELESTRAK","updated_at":"2026-09-22T09:00:49.273509Z"}}